This demonstration page uses our WeatherBlox Daily Observations layout. Learn more.

Left ArrowRight Arrow

40.92501, -98.34201

Hourly Observations for June 21, 2015

Temp ( °F °C ) Dew Point ( °F °C ) Humidity (%) Winds ( mph kmh ) Pressure ( in mb ) Visibility ( mi km ) Precip ( " mm )
12:53 am 00:53 Clear 67 19.4 63 17.2 87 87 Calm 29.93 1013 10 16 0.00 0.00
1:53 am 01:53 Clear 65 18.3 63 17.2 93 93 ESE 3 6 29.91 1013 10 16 0.00 0.00
2:53 am 02:53 Clear 66 18.9 62 16.7 87 87 ESE 5 7 29.88 1012 10 16 0.00 0.00
3:53 am 03:53 Clear 64 17.8 61 16.1 90 90 NE 8 13 29.89 1012 10 16 0.00 0.00
4:53 am 04:53 Clear 65 18.3 61 16.1 87 87 ESE 6 9 29.87 1011 10 16 0.00 0.00
5:53 am 05:53 Clear 66 18.9 62 16.7 87 87 E 9 15 29.87 1012 10 16 0.00 0.00
6:35 am 06:35 Sunny with Nearby Thunderstorms 66 18.9 63 17.2 90 90 NNW 18 30 29.97 1015 10 16 0.00 0.00
6:43 am 06:43 Sunny with Nearby Thunderstorms 67 19.4 63 17.2 87 87 NNE 13 20 29.97 1015 10 16 0.00 0.00
6:50 am 06:50 Mostly Sunny 66 19 63 17 88 88 NNE 12 19 29.97 1015 10 16 0.00 0.00
6:53 am 06:53 Partly Cloudy with Light Rain 67 19.4 63 17.2 87 87 NNE 14 22 29.99 1016 10 16 0.00 0.03
7:53 am 07:53 Mostly Sunny 67 19.4 63 17.2 87 87 ESE 8 13 29.95 1014 10 16 0.00 0.03
8:53 am 08:53 Sunny 68 20 64 17.8 87 87 NNW 9 15 30.04 1017 10 16 0.00 0.00
9:53 am 09:53 Mostly Sunny 69 20.6 64 17.8 84 84 SE 16 26 29.90 1012 10 16 0.00 0.00
10:53 am 10:53 Sunny 73 22.8 66 18.9 79 79 ENE 14 22 29.90 1013 10 16 0.00 0.00
11:53 am 11:53 Sunny 78 25.6 65 18.3 64 64 E 15 24 29.89 1012 10 16 0.00 0.00
12:53 pm 12:53 Sunny 81 27.2 63 17.2 54 54 ESE 15 24 29.91 1013 10 16 0.00 0.00
1:53 pm 13:53 Sunny 83 28.3 64 17.8 53 53 ESE 10 17 29.89 1012 10 16 0.00 0.00
2:53 pm 14:53 Sunny 84 28.9 66 18.9 55 55 ESE 15 24 29.88 1012 10 16 0.00 0.00
3:53 pm 15:53 Mostly Sunny 84 28.9 69 20.6 61 61 ESE 13 20 29.88 1012 10 16 0.00 0.00
4:53 pm 16:53 Cloudy 86 30 70 21.1 59 59 SSE 10 17 29.86 1011 10 16 0.00 0.00
5:53 pm 17:53 Sunny 85 29.4 71 21.7 63 63 ESE 10 17 29.83 1010 10 16 0.00 0.00
6:53 pm 18:53 Sunny 84 28.9 71 21.7 65 65 SE 7 11 29.81 1010 10 16 0.00 0.00
7:53 pm 19:53 Sunny 83 28.3 72 22.2 70 70 SE 9 15 29.79 1009 10 16 0.00 0.00
8:53 pm 20:53 Sunny 80 26.7 72 22.2 76 76 ESE 9 15 29.79 1009 10 16 0.00 0.00
9:53 pm 21:53 Clear 78 25.6 73 22.8 85 85 E 8 13 29.77 1008 10 16 0.00 0.00
10:53 pm 22:53 Clear 78 25.6 73 22.8 85 85 ESE 16 26 29.75 1007 10 16 0.00 0.00
11:53 pm 23:53 Clear 79 26.1 72 22.2 79 79 SSE 14 22 29.72 1006 10 16 0.00 0.00

Powered by AerisWeather